Change the Weather History Date:

Monday, May 26, 2014

  Actual Average (KGVL) Record (KGVL)
Temperature  
Mean Temperature 71 °F 71 °F  
Max Temperature 80 °F 80 °F 93 °F (1962)
Min Temperature 62 °F 61 °F 41 °F (1979)
Cooling Degree Days 6 6  
Month to date cooling degree days 100  
Year to date cooling degree days 139  
Growing Degree Days 21 (Base 50)    
Moisture  
Dew Point 60 °F    
Average Humidity 73    
Maximum Humidity 88    
Minimum Humidity 54    
Precipitation  
Precipitation 0.00 in 0.14 in 1.25 in (1946)
Month to date precipitation 3.33  
Year to date precipitation 22.21  
Sea Level Pressure  
Sea Level Pressure 30.20 in    
Wind  
Wind Speed 2 mph (SSE)    
Max Wind Speed 6 mph    
Max Gust Speed -    
Visibility 10 miles    
Events Rain    
T = Trace of Precipitation, MM = Missing Value Source: NWS Daily Summary

Daily Weather History Graph

Daily Weather History Graph

Search for Another Location

Airport or City:

Trip Planner

Search our weather history database for the weather conditions in past years. The results will help you decide how hot, cold, wet, or windy it might be!

Date:

Astronomy

May. 26, 2014 Rise Set
Actual Time 6:28 AM EDT 8:40 PM EDT
Civil Twilight 6:00 AM EDT 9:09 PM EDT
Nautical Twilight 5:25 AM EDT 9:44 PM EDT
Astronomical Twilight 4:48 AM EDT 10:22 PM EDT
Moon 5:03 AM EDT (5/26) 6:47 PM EDT (5/26)
Length of Visible Light 15h 08m
Length of Day
14h 11m
Waning Crescent, 5% of the Moon is Illuminated
May 26
Waning Crescent
May 28
New
Jun 5
First Quarter
Jun 13
Full
Jun 19
Last Quarter

Hourly Weather History & Observations

Time (EDT) Temp. Heat Index Dew Point Humidity Pressure Visibility Wind Dir Wind Speed Gust Speed Precip Events Conditions
12:15 AM 68.0 °F - 59.0 °F 73% 30.19 in 10.0 mi ENE 3.5 mph - N/A   Clear
12:35 AM 68.0 °F - 59.0 °F 73% 30.19 in 10.0 mi East 4.6 mph - N/A   Clear
12:55 AM 68.0 °F - 59.0 °F 73% 30.19 in 10.0 mi ENE 3.5 mph - N/A   Clear
1:15 AM 66.2 °F - 59.0 °F 78% 30.19 in 10.0 mi ENE 4.6 mph - N/A   Clear
1:35 AM 66.2 °F - 59.0 °F 78% 30.19 in 10.0 mi ENE 3.5 mph - N/A   Clear
1:55 AM 66.2 °F - 59.0 °F 78% 30.19 in 10.0 mi Calm Calm - N/A   Clear
2:15 AM 64.4 °F - 59.0 °F 83% 30.20 in 10.0 mi Calm Calm - N/A   Clear
2:35 AM 64.4 °F - 59.0 °F 83% 30.19 in 10.0 mi Calm Calm - N/A   Clear
2:55 AM 64.4 °F - 59.0 °F 83% 30.19 in 10.0 mi ENE 5.8 mph - N/A   Clear
3:15 AM 64.4 °F - 59.0 °F 83% 30.20 in 10.0 mi ENE 4.6 mph - N/A   Clear
3:35 AM 64.4 °F - 59.0 °F 83% 30.20 in 10.0 mi Calm Calm - N/A   Clear
3:55 AM 64.4 °F - 59.0 °F 83% 30.19 in 10.0 mi ENE 3.5 mph - N/A   Clear
4:15 AM 64.4 °F - 59.0 °F 83% 30.19 in 10.0 mi ENE 4.6 mph - N/A   Clear
4:35 AM 62.6 °F - 59.0 °F 88% 30.19 in 10.0 mi Calm Calm - N/A   Clear
4:55 AM 62.6 °F - 59.0 °F 88% 30.19 in 10.0 mi ENE 3.5 mph - N/A   Clear
5:15 AM 62.6 °F - 59.0 °F 88% 30.19 in 10.0 mi Calm Calm - N/A   Clear
5:35 AM 62.6 °F - 59.0 °F 88% 30.20 in 10.0 mi Calm Calm - N/A   Clear
5:55 AM 62.6 °F - 59.0 °F 88% 30.21 in 10.0 mi ENE 3.5 mph - N/A   Clear
6:15 AM 62.6 °F - 59.0 °F 88% 30.21 in 10.0 mi Calm Calm - N/A   Clear
6:35 AM 62.6 °F - 59.0 °F 88% 30.22 in 10.0 mi Calm Calm - N/A   Clear
6:55 AM 62.6 °F - 59.0 °F 88% 30.22 in 7.0 mi Calm Calm - N/A   Clear
7:15 AM 62.6 °F - 59.0 °F 88% 30.23 in 10.0 mi Calm Calm - N/A   Scattered Clouds
7:35 AM 64.4 °F - 59.0 °F 83% 30.23 in 10.0 mi ENE 3.5 mph - N/A   Scattered Clouds
7:55 AM 64.4 °F - 59.0 °F 83% 30.23 in 10.0 mi Calm Calm - N/A   Clear
8:15 AM 66.2 °F - 59.0 °F 78% 30.23 in 10.0 mi Calm Calm - N/A   Clear
8:35 AM 68.0 °F - 57.2 °F 68% 30.24 in 10.0 mi Calm Calm - N/A   Scattered Clouds
8:55 AM 69.8 °F - 57.2 °F 64% 30.24 in 10.0 mi Calm Calm - N/A   Scattered Clouds
9:15 AM 69.8 °F - 57.2 °F 64% 30.25 in 10.0 mi Calm Calm - N/A   Scattered Clouds
9:35 AM 69.8 °F - 59.0 °F 68% 30.26 in 10.0 mi Calm Calm - N/A   Scattered Clouds
9:55 AM 69.8 °F - 59.0 °F 68% 30.26 in 10.0 mi Calm Calm - N/A   Scattered Clouds
10:15 AM 73.4 °F - 59.0 °F 61% 30.26 in 10.0 mi West 4.6 mph - N/A   Scattered Clouds
10:35 AM 71.6 °F - 59.0 °F 64% 30.26 in 10.0 mi Calm Calm - N/A   Scattered Clouds
10:55 AM 69.8 °F - 59.0 °F 68% 30.27 in 7.0 mi NNW 3.5 mph - N/A Rain Rain
11:15 AM 68.0 °F - 62.6 °F 83% 30.26 in 7.0 mi Calm Calm - N/A Rain Light Rain
11:35 AM 68.0 °F - 62.6 °F 83% 30.26 in 4.0 mi NE 4.6 mph - N/A Rain Rain
11:55 AM 68.0 °F - 64.4 °F 88% 30.25 in 4.0 mi Calm Calm - N/A   Mostly Cloudy
12:15 PM 68.0 °F - 64.4 °F 88% 30.25 in 10.0 mi Calm Calm - N/A   Scattered Clouds
12:35 PM 71.6 °F - 62.6 °F 73% 30.25 in 10.0 mi Calm Calm - N/A   Scattered Clouds
12:55 PM 71.6 °F - 60.8 °F 69% 30.25 in 10.0 mi WSW 3.5 mph - N/A   Clear
1:15 PM 71.6 °F - 60.8 °F 69% 30.25 in 10.0 mi SW 5.8 mph - N/A   Scattered Clouds
1:35 PM 69.8 °F - 60.8 °F 73% 30.24 in 10.0 mi SSW 3.5 mph - N/A Rain Light Rain
1:55 PM 69.8 °F - 60.8 °F 73% 30.23 in 10.0 mi Calm Calm - N/A Rain Light Rain
2:15 PM 69.8 °F - 62.6 °F 78% 30.23 in 10.0 mi WNW 4.6 mph - N/A   Scattered Clouds
2:35 PM 69.8 °F - 60.8 °F 73% 30.22 in 7.0 mi West 4.6 mph - N/A Rain Light Rain
2:55 PM 69.8 °F - 62.6 °F 78% 30.20 in 5.0 mi Calm Calm - N/A Rain Light Rain
3:15 PM 71.6 °F - 66.2 °F 83% 30.19 in 7.0 mi Calm Calm - N/A Rain Light Rain
3:35 PM 73.4 °F - 60.8 °F 65% 30.18 in 10.0 mi Calm Calm - N/A   Clear
3:55 PM 75.2 °F - 62.6 °F 65% 30.18 in 10.0 mi SSW 3.5 mph - N/A   Clear
4:15 PM 77.0 °F - 59.0 °F 54% 30.17 in 10.0 mi Calm Calm - N/A   Clear
4:35 PM 78.8 °F - 60.8 °F 54% 30.17 in 10.0 mi Calm Calm - N/A   Clear
4:55 PM 78.8 °F - 60.8 °F 54% 30.16 in 10.0 mi SSW 4.6 mph - N/A   Clear
5:15 PM 80.6 °F 81.8 °F 62.6 °F 54% 30.16 in 10.0 mi South 3.5 mph - N/A   Clear
5:35 PM 78.8 °F - 60.8 °F 54% 30.16 in 10.0 mi SW 5.8 mph - N/A   Clear
5:55 PM 80.6 °F 81.8 °F 62.6 °F 54% 30.16 in 10.0 mi SSW 3.5 mph - N/A   Clear
6:15 PM 78.8 °F - 60.8 °F 54% 30.15 in 10.0 mi SW 5.8 mph - N/A   Clear
6:35 PM 78.8 °F - 60.8 °F 54% 30.15 in 10.0 mi Calm Calm - N/A   Clear
6:55 PM 78.8 °F - 60.8 °F 54% 30.15 in 10.0 mi Calm Calm - N/A   Clear
7:15 PM 78.8 °F - 60.8 °F 54% 30.14 in 10.0 mi SSW 3.5 mph - N/A   Clear
7:35 PM 77.0 °F - 62.6 °F 61% 30.15 in 10.0 mi Calm Calm - N/A   Clear
7:55 PM 78.8 °F - 62.6 °F 57% 30.15 in 10.0 mi Calm Calm - N/A   Clear
8:15 PM 77.0 °F - 60.8 °F 57% 30.15 in 10.0 mi Calm Calm - N/A   Clear
8:35 PM 77.0 °F - 62.6 °F 61% 30.16 in 10.0 mi Calm Calm - N/A   Clear
8:55 PM 73.4 °F - 64.4 °F 73% 30.16 in 10.0 mi SSW 3.5 mph - N/A   Clear
9:15 PM 73.4 °F - 62.6 °F 69% 30.16 in 10.0 mi SSW 3.5 mph - N/A   Clear
9:35 PM 73.4 °F - 60.8 °F 65% 30.16 in 10.0 mi Calm Calm - N/A   Clear
9:55 PM 71.6 °F - 60.8 °F 69% 30.17 in 10.0 mi Calm Calm - N/A   Clear
10:15 PM 71.6 °F - 60.8 °F 69% 30.18 in 10.0 mi South 3.5 mph - N/A   Clear
10:35 PM 71.6 °F - 60.8 °F 69% 30.19 in 10.0 mi South 4.6 mph - N/A   Clear
10:55 PM 69.8 °F - 62.6 °F 78% 30.19 in 10.0 mi SSW 4.6 mph - N/A   Clear
11:15 PM 69.8 °F - 60.8 °F 73% 30.20 in 10.0 mi Calm Calm - N/A   Clear
11:35 PM 69.8 °F - 60.8 °F 73% 30.20 in 10.0 mi SSW 3.5 mph - N/A   Clear
11:55 PM 68.0 °F - 60.8 °F 78% 30.20 in 10.0 mi Calm Calm - N/A   Scattered Clouds